Location: Hohe Wand Kleine Kanzel
(47.8330°N, 16.0170°E)
Time: 06:12:04
(UTC+02:00)

Envisat - Visible Passes

Search period start: 25 September 2022 00:00
Search period end: 05 October 2022 00:00
Orbit: 764 x 765 km, 98.2° (Epoch: 24 September)

Date Brightness Start Highest point End Pass type
(mag) Time Alt. Az. Time Alt. Az. Time Alt. Az.
25 Sep 5.3 04:19:08 10° NE 04:23:06 22° E 04:27:02 10° SE visible
25 Sep 3.2 05:57:28 10° N 06:02:25 54° WNW 06:07:20 10° SW visible
26 Sep 6.0 03:44:46 10° ENE 03:45:38 10° E 03:46:31 10° E visible
26 Sep 3.2 05:20:25 10° NNE 05:25:31 76° ESE 05:30:36 10° S visible
27 Sep 4.5 04:43:43 10° NNE 04:48:25 36° E 04:53:06 10° SSE visible
28 Sep 5.6 04:07:41 10° NE 04:11:07 18° E 04:14:32 10° SE visible
28 Sep 3.0 05:45:33 10° N 05:50:37 67° WNW 05:55:39 10° SSW visible
29 Sep 3.5 05:08:36 10° NNE 05:13:39 60° E 05:18:40 10° S visible
30 Sep 4.9 04:32:03 10° NE 04:36:30 29° E 04:40:53 10° SSE visible
30 Sep 3.4 06:10:51 10° N 06:15:36 41° WNW 06:20:21 10° SW visible
01 Oct 5.8 03:56:25 10° NE 03:59:06 14° E 04:01:48 10° ESE visible
01 Oct 2.9 05:33:40 10° NNE 05:38:47 83° WNW 05:43:51 10° SSW visible
02 Oct 3.9 04:56:49 10° NNE 05:01:46 48° E 05:06:39 10° S visible
03 Oct 5.2 04:20:28 10° NE 04:24:32 23° E 04:28:33 10° SE visible
03 Oct 3.2 05:58:53 10° N 06:03:49 51° WNW 06:08:43 10° SW visible
04 Oct 6.0 03:45:41 10° ENE 03:47:05 11° E 03:48:29 10° E visible
04 Oct 3.1 05:21:48 10° NNE 05:26:55 79° ESE 05:32:00 10° S visible
